When you browse on this site, cookies collect data to enhance your experience and personalize the content and advertising you see.
Visit our Privacy Policy to learn more. By continuing to use the site, you agree to this use of cookies and data.

Hourly Weather Wiktoria

Today, 12 August, Wednesday

Time Temperature Precipitation Wind Pressure Humidity
00:00 +8°C° 0.2 mm 5 mps 748 mmHg 81%
01:00 +8°C° 0.2 mm 5 mps 748 mmHg 85%
02:00 +8°C° 0.3 mm 5 mps 748 mmHg 86%
03:00 +8°C° 0.3 mm 5 mps 747 mmHg 86%
04:00 +7°C° 0 mm 5 mps 747 mmHg 86%
05:00 +7°C° 0.6 mm 5 mps 747 mmHg 89%
06:00 +7°C° 0.6 mm 5 mps 747 mmHg 93%
07:00 +6°C° 0.6 mm 5 mps 747 mmHg 96%
08:00 +7°C° 0.3 mm 5 mps 747 mmHg 96%
09:00 +7°C° 0.3 mm 5 mps 747 mmHg 96%
10:00 +8°C° 0 mm 5 mps 747 mmHg 95%
11:00 +8°C° 0 mm 5 mps 746 mmHg 94%
12:00 +10°C° 0 mm 4 mps 746 mmHg 94%
13:00 +11°C° 0 mm 4 mps 745 mmHg 93%
14:00 +11°C° 0 mm 4 mps 745 mmHg 92%
15:00 +11°C° 0 mm 4 mps 745 mmHg 92%
16:00 +10°C° 0 mm 5 mps 744 mmHg 92%
17:00 +10°C° 0 mm 5 mps 744 mmHg 92%
18:00 +9°C° 0 mm 5 mps 745 mmHg 93%
19:00 +9°C° 0 mm 5 mps 745 mmHg 94%
20:00 +9°C° 0.1 mm 5 mps 745 mmHg 94%
21:00 +8°C° 0.1 mm 5 mps 745 mmHg 95%
22:00 +8°C° 0.1 mm 5 mps 745 mmHg 95%
23:00 +8°C° 0.2 mm 4 mps 745 mmHg 95%

Tomorrow, 13 August, Thursday

Time Temperature Precipitation Wind Pressure Humidity
00:00 +8°C° 0.2 mm 4 mps 746 mmHg 96%
01:00 +8°C° 0.2 mm 3 mps 746 mmHg 97%
02:00 +8°C° 0 mm 3 mps 746 mmHg 97%
03:00 +8°C° 0 mm 3 mps 746 mmHg 97%
04:00 +8°C° 0 mm 3 mps 746 mmHg 97%
05:00 +8°C° 0 mm 3 mps 746 mmHg 97%
06:00 +8°C° 0 mm 3 mps 746 mmHg 97%
07:00 +8°C° 0 mm 3 mps 747 mmHg 97%
08:00 +9°C° 0 mm 3 mps 747 mmHg 96%
09:00 +10°C° 0 mm 3 mps 747 mmHg 94%
10:00 +11°C° 0 mm 4 mps 748 mmHg 93%
11:00 +12°C° 0 mm 4 mps 747 mmHg 90%
12:00 +13°C° 0 mm 4 mps 747 mmHg 87%
13:00 +14°C° 0 mm 4 mps 747 mmHg 85%
14:00 +14°C° 0.2 mm 4 mps 747 mmHg 85%
15:00 +14°C° 0.2 mm 4 mps 746 mmHg 86%
16:00 +14°C° 0.2 mm 4 mps 746 mmHg 87%
17:00 +13°C° 0.3 mm 4 mps 747 mmHg 89%
18:00 +12°C° 0.3 mm 3 mps 747 mmHg 92%
19:00 +11°C° 0.3 mm 3 mps 747 mmHg 94%
20:00 +11°C° 0.2 mm 3 mps 748 mmHg 94%
21:00 +10°C° 0.2 mm 3 mps 748 mmHg 94%
22:00 +10°C° 0.2 mm 3 mps 748 mmHg 94%
23:00 +10°C° 0.1 mm 3 mps 748 mmHg 94%

Day after tomorrow, 14 August, Friday

Time Temperature Precipitation Wind Pressure Humidity
00:00 +10°C° 0.1 mm 3 mps 748 mmHg 94%
01:00 +9°C° 0.1 mm 3 mps 748 mmHg 94%
02:00 +9°C° 0.2 mm 3 mps 748 mmHg 95%
03:00 +9°C° 0.2 mm 3 mps 748 mmHg 95%
04:00 +9°C° 0.2 mm 3 mps 748 mmHg 96%
05:00 +9°C° 0.2 mm 3 mps 748 mmHg 96%
06:00 +9°C° 0.2 mm 3 mps 748 mmHg 96%
07:00 +9°C° 0.2 mm 3 mps 748 mmHg 96%
08:00 +10°C° 0.5 mm 3 mps 748 mmHg 96%
09:00 +10°C° 0.5 mm 3 mps 748 mmHg 96%
10:00 +10°C° 0.5 mm 3 mps 748 mmHg 96%
11:00 +12°C° 0.6 mm 3 mps 748 mmHg 92%
12:00 +13°C° 0.6 mm 3 mps 748 mmHg 88%
13:00 +14°C° 0.6 mm 4 mps 747 mmHg 84%
14:00 +16°C° 0.4 mm 3 mps 747 mmHg 82%
15:00 +16°C° 0.4 mm 2 mps 747 mmHg 80%
16:00 +16°C° 0.4 mm 2 mps 746 mmHg 79%
17:00 +14°C° 0.2 mm 2 mps 747 mmHg 82%
18:00 +13°C° 0.2 mm 1 mps 747 mmHg 85%
19:00 +11°C° 0.2 mm 1 mps 748 mmHg 89%
20:00 +11°C° 0 mm 1 mps 748 mmHg 90%
21:00 +10°C° 0 mm 1 mps 748 mmHg 91%
22:00 +9°C° 0 mm 2 mps 748 mmHg 92%
23:00 +8°C° 0 mm 2 mps 748 mmHg 92%

15 August, Saturday

Time Temperature Precipitation Wind Pressure Humidity
00:00 +8°C° 0 mm 2 mps 748 mmHg 93%
01:00 +8°C° 0 mm 2 mps 748 mmHg 93%
02:00 +8°C° 0 mm 1 mps 748 mmHg 93%
03:00 +8°C° 0 mm 1 mps 748 mmHg 93%
04:00 +8°C° 0 mm 1 mps 748 mmHg 93%
05:00 +8°C° 0 mm 1 mps 748 mmHg 93%
06:00 +7°C° 0 mm 1 mps 748 mmHg 94%
07:00 +7°C° 0 mm 1 mps 749 mmHg 94%
08:00 +9°C° 0 mm 1 mps 749 mmHg 91%
09:00 +11°C° 0 mm 1 mps 749 mmHg 88%
10:00 +11°C° 0 mm 0 mps 749 mmHg 86%
11:00 +14°C° 0 mm 1 mps 749 mmHg 82%
12:00 +15°C° 0 mm 1 mps 748 mmHg 78%
13:00 +16°C° 0 mm 1 mps 748 mmHg 74%
14:00 +16°C° 0 mm 2 mps 747 mmHg 74%
15:00 +16°C° 0 mm 2 mps 747 mmHg 74%
16:00 +16°C° 0 mm 2 mps 747 mmHg 75%
17:00 +15°C° 0.4 mm 2 mps 747 mmHg 80%
18:00 +13°C° 0.4 mm 2 mps 748 mmHg 85%
19:00 +10°C° 0.4 mm 2 mps 748 mmHg 90%
20:00 +9°C° 0 mm 2 mps 749 mmHg 91%
21:00 +9°C° 0 mm 2 mps 749 mmHg 91%
22:00 +8°C° 0 mm 3 mps 749 mmHg 91%
23:00 +8°C° 0 mm 3 mps 749 mmHg 92%

16 August, Sunday

Time Temperature Precipitation Wind Pressure Humidity
00:00 +8°C° 0 mm 3 mps 749 mmHg 93%
01:00 +7°C° 0 mm 3 mps 749 mmHg 94%
02:00 +7°C° 0 mm 3 mps 749 mmHg 95%
03:00 +7°C° 0 mm 3 mps 748 mmHg 95%
04:00 +5°C° 0 mm 3 mps 748 mmHg 96%
05:00 +5°C° 0 mm 3 mps 748 mmHg 96%
06:00 +6°C° 0 mm 2 mps 749 mmHg 96%
07:00 +6°C° 0 mm 2 mps 749 mmHg 96%
08:00 +8°C° 0 mm 3 mps 749 mmHg 92%
09:00 +10°C° 0 mm 3 mps 749 mmHg 88%
10:00 +12°C° 0 mm 3 mps 749 mmHg 84%
11:00 +13°C° 0 mm 3 mps 749 mmHg 80%
12:00 +14°C° 0 mm 3 mps 748 mmHg 75%
13:00 +15°C° 0 mm 4 mps 747 mmHg 71%
14:00 +14°C° 0 mm 4 mps 747 mmHg 71%
15:00 +14°C° 0 mm 3 mps 747 mmHg 72%
16:00 +14°C° 0 mm 3 mps 747 mmHg 73%
17:00 +12°C° 0 mm 3 mps 747 mmHg 78%
18:00 +10°C° 0 mm 2 mps 747 mmHg 84%
19:00 +8°C° 0 mm 2 mps 748 mmHg 89%
20:00 +8°C° 0 mm 2 mps 748 mmHg 90%
21:00 +7°C° 0 mm 2 mps 748 mmHg 90%
22:00 +7°C° 0 mm 2 mps 748 mmHg 91%
23:00 +8°C° 0 mm 1 mps 748 mmHg 92%

17 August, Monday

Time Temperature Precipitation Wind Pressure Humidity
00:00 +7°C° 0 mm 1 mps 748 mmHg 92%
01:00 +7°C° 0 mm 1 mps 748 mmHg 93%
02:00 +7°C° 0 mm 1 mps 748 mmHg 93%
03:00 +8°C° 0 mm 1 mps 747 mmHg 92%
04:00 +8°C° 0 mm 1 mps 747 mmHg 92%
05:00 +8°C° 0 mm 1 mps 747 mmHg 91%
06:00 +8°C° 0 mm 1 mps 747 mmHg 91%
07:00 +7°C° 0 mm 2 mps 748 mmHg 90%
08:00 +8°C° 0 mm 2 mps 747 mmHg 87%
09:00 +9°C° 0 mm 3 mps 747 mmHg 85%
10:00 +10°C° 0 mm 3 mps 747 mmHg 82%
11:00 +11°C° 0 mm 4 mps 747 mmHg 77%
12:00 +12°C° 0 mm 4 mps 746 mmHg 72%
13:00 +13°C° 0 mm 5 mps 746 mmHg 67%
14:00 +13°C° 0.1 mm 4 mps 745 mmHg 72%
15:00 +13°C° 0.1 mm 3 mps 745 mmHg 77%
16:00 +13°C° 0.1 mm 3 mps 744 mmHg 82%
17:00 +12°C° 0.3 mm 3 mps 744 mmHg 85%
18:00 +11°C° 0.3 mm 3 mps 745 mmHg 89%
19:00 +10°C° 0.3 mm 3 mps 745 mmHg 92%
20:00 +10°C° 0.3 mm 3 mps 745 mmHg 93%
21:00 +9°C° 0.3 mm 3 mps 745 mmHg 94%
22:00 +9°C° 0.3 mm 3 mps 745 mmHg 95%
23:00 +9°C° 0.3 mm 3 mps 744 mmHg 95%
Show more